Location: Centerville
(32.8776°N, 96.6203°W)
Time: 13:18:17
(UTC+00:00)

Centaur AC-125 - Pass Details

Date: 17 June 2021
Orbit: 332 x 24328 km, 26.7° (Epoch: 30 July)

Event Time Altitude Azimuth Distance (km) Brightness Sun altitude
Exits shadow 09:28:24 18° 136° (SE) 1,027 3.7 -19.1°
Drops below altitude 10° 09:29:42 10° 116° (ESE) 1,596 4.9 -18.9°
Sets 09:33:01 0° 101° (ESE) 3,286 6.7 -18.4°
